Location: Laas
(43.4693°N, 0.3073°E)
Time: 16:07:10
(UTC+00:00)

BREEZE-M R/B - Pass Details

Date: 25 October 2020
Orbit: 310 x 4523 km, 49.7° (Epoch: 23 November)

Event Time Altitude Azimuth Distance (km) Brightness Sun altitude
Rises 17:59:18 0° 284° (WNW) 2,388 7.6 -11.5°
Reaches altitude 10° 18:00:59 10° 293° (WNW) 1,719 6.4 -11.8°
Maximum altitude 18:04:31 41° 6° (N) 1,046 4.1 -12.4°
Enters shadow 18:09:23 16° 70° (ENE) 2,561 5.6 -13.3°
